sat.trackr.live / text

‹ back to catalog

CHEOPS

NORAD 44874 · 2019-092B

PAYLOAD ACTIVE UNKNOWN

§ Identity

Operator
Country
ESA
Launch date
2019-12-18
Launch site
FRGUI
Launch vehicle
Mass (kg)
RCS (m²)

External: N2YO · Heavens-Above · Gunter

§ Orbital elements

Epoch: 2026-09-20T00:16:51.974688Z

Period
98.49 min
Inclination
98.1511°
Eccentricity
0.0010943
Mean motion
14.62016382 rev/d
Perigee alt
678.9 km
Apogee alt
694.4 km
Semi-major
7,064.8 km
B*
4.5118e-5
RAAN
89.9714°
Arg perigee
156.2819°
Mean anomaly
203.8889°
Rev number
35,975

§ Raw data

CHEOPS1 44874U 19092B   26263.01171267  .00000179  00000+0  45118-4 0  99912 44874  98.1511  89.9714 0010943 156.2819 203.8889 14.62016382359751

JSON: /api/v1/satellites/44874 · /tle

For live sub-satellite position, see the globe view (requires WebGL).

§ Visibility from observer

Set your observer location to see the next 7 days of passes ≥ 10°. The values pass through the URL so the page stays shareable.

No JS? Fill the form by hand. The geolocation button needs JavaScript.

§ Radio — SatNOGS DB

ModeDescriptionDownlinkUplink
FM S-band telemetry 2.209 GHz

1 transmitter · refreshed weekly from db.satnogs.org